CW7664 Weather Reports


Display with metric or nautical units.
time (UTC)temp
F
wind
direction
speed
MPH
gust
MPH
rain 1hr
in
rain 24hr
in
rain mn
in
humidity
%
barometer
mb
20260507194555 77 196 3.0 11.0 0.00 0.00 0.00 53 1013.9
20260507193055 77 207 3.0 9.0 0.00 0.00 0.00 53 1013.9
20260507191556 76 245 4.0 9.0 0.00 0.00 0.00 53 1014.1
20260507190054 76 206 4.0 11.0 0.00 0.00 0.00 53 1014.1
20260507184550 77 207 4.0 9.0 0.00 0.00 0.00 52 1014.2
20260507183044 77 223 3.0 11.0 0.00 0.00 0.00 53 1014.2
20260507181540 76 261 2.0 7.0 0.00 0.00 0.00 55 1014.3
20260507180038 75 349 3.0 7.0 0.00 0.00 0.00 55 1014.4
20260507174541 75 225 3.0 7.0 0.00 0.00 0.00 55 1014.4
20260507173034 74 227 2.0 7.0 0.00 0.00 0.00 57 1014.4
20260507171528 73 315 1.0 5.0 0.00 0.00 0.00 58 1014.5
20260507170036 73 282 3.0 6.0 0.00 0.00 0.00 58 1014.6
20260507164518 72 178 2.0 5.0 0.00 0.00 0.00 60 1014.7
20260507163013 71 213 2.0 6.0 0.00 0.00 0.00 60 1014.8
20260507161509 70 241 1.0 4.0 0.00 0.00 0.00 62 1014.8
20260507160007 69 288 0.0 3.0 0.00 0.00 0.00 62 1014.9
20260507154605 68 196 0.0 4.0 0.00 0.00 0.00 64 1015.0
20260507153101 67 92 1.0 4.0 0.00 0.00 0.00 66 1015.1
20260507151552 65 61 0.0 3.0 0.00 0.00 0.00 69 1015.1
20260507150047 62 288 0.0 2.0 0.00 0.00 0.00 75 1015.2
20260507144543 61 174 0.0 0.0 0.00 0.00 0.00 78 1015.2
20260507143039 59 159 0.0 0.0 0.00 0.00 0.00 81 1015.0
20260507141535 58 67 0.0 0.0 0.00 0.00 0.00 83 1015.0
20260507140030 55 71 0.0 0.0 0.00 0.00 0.00 84 1014.9
20260507134526 53 50 0.0 0.0 0.00 0.00 0.00 83 1014.8
20260507133026 52 50 0.0 0.0 0.00 0.00 0.00 83 1014.7
20260507131528 52 50 0.0 0.0 0.00 0.00 0.00 83 1014.5
20260507130020 52 50 0.0 0.0 0.00 0.00 0.00 83 1014.5
20260507124519 52 50 0.0 0.0 0.00 0.00 0.00 82 1014.4
20260507123018 53 50 0.0 1.0 0.00 0.00 0.00 82 1014.4
20260507121516 53 80 0.0 1.0 0.00 0.00 0.00 82 1014.4
20260507120027 53 80 0.0 0.0 0.00 0.00 0.00 82 1014.5
20260507114513 53 80 0.0 1.0 0.00 0.00 0.00 82 1014.4
20260507113011 54 80 0.0 1.0 0.00 0.00 0.00 82 1014.4
20260507111511 54 80 0.0 0.0 0.00 0.00 0.00 82 1014.6
20260507110010 55 80 0.0 3.0 0.00 0.00 0.00 82 1014.6
20260507104512 54 117 0.0 0.0 0.00 0.00 0.00 82 1014.6
20260507103008 54 71 0.0 0.0 0.00 0.00 0.00 82 1014.7
20260507101507 54 71 0.0 2.0 0.00 0.00 0.00 82 1014.7
20260507100008 54 92 0.0 2.0 0.00 0.00 0.00 82 1014.8
20260507094503 54 31 0.0 0.0 0.00 0.00 0.00 82 1015.0
20260507093003 54 31 0.0 0.0 0.00 0.00 0.00 82 1015.2
20260507091601 54 31 0.0 0.0 0.00 0.00 0.00 81 1015.2
20260507090059 54 31 0.0 0.0 0.00 0.00 0.00 81 1015.2
20260507084557 55 31 0.0 0.0 0.00 0.00 0.00 81 1015.4
20260507083057 55 31 0.0 0.0 0.00 0.00 0.00 81 1015.5
20260507081603 55 31 0.0 0.0 0.00 0.00 0.00 81 1015.5
20260507080056 55 31 0.0 0.0 0.00 0.00 0.00 81 1015.5
20260507074607 55 31 0.0 0.0 0.00 0.00 0.00 81 1015.4
20260507073051 55 31 0.0 0.0 0.00 0.00 0.00 81 1015.5
20260507071550 55 31 0.0 0.0 0.00 0.00 0.00 80 1015.6
20260507070048 55 31 0.0 0.0 0.00 0.00 0.00 80 1015.8
20260507064548 56 31 0.0 0.0 0.00 0.00 0.00 80 1015.7
20260507063047 56 31 0.0 0.0 0.00 0.00 0.00 80 1015.7
20260507061547 56 34 0.0 0.0 0.00 0.00 0.00 79 1015.7
20260507060046 57 27 0.0 0.0 0.00 0.00 0.00 78 1015.8
20260507054613 57 27 0.0 0.0 0.00 0.00 0.00 78 1015.9
20260507053050 58 27 0.0 0.0 0.00 0.00 0.00 77 1015.8
20260507051545 58 27 0.0 0.0 0.00 0.00 0.00 76 1015.8
20260507050046 59 5 0.0 0.0 0.00 0.00 0.00 75 1015.7
20260507044549 60 360 0.0 0.0 0.00 0.00 0.00 74 1015.6
20260507043046 61 350 0.0 0.0 0.00 0.00 0.00 73 1015.5
20260507041548 62 335 0.0 0.0 0.00 0.00 0.00 73 1015.5
20260507040045 63 336 0.0 0.0 0.00 0.00 0.00 72 1015.4
20260507034551 63 306 0.0 0.0 0.00 0.00 0.00 71 1015.1
20260507033045 64 296 0.0 3.0 0.00 0.00 0.00 70 1014.9
20260507031555 64 320 1.0 4.0 0.00 0.00 0.00 70 1014.8
20260507030050 65 311 1.0 4.0 0.00 0.00 0.00 69 1014.6
20260507024544 66 308 0.0 6.0 0.00 0.00 0.00 68 1014.4
20260507023040 66 231 1.0 5.0 0.00 0.00 0.00 65 1014.4
20260507021539 67 270 1.0 4.0 0.00 0.00 0.00 63 1014.3
20260507020039 69 320 1.0 4.0 0.00 0.00 0.00 61 1014.2
20260507014547 69 232 2.0 7.0 0.00 0.00 0.00 60 1014.2
20260507013038 70 331 1.0 6.0 0.00 0.00 0.00 60 1014.2
20260507011538 70 201 2.0 8.0 0.00 0.00 0.00 59 1014.2
20260507010041 70 221 3.0 7.0 0.00 0.00 0.00 58 1014.3
20260507004536 69 184 3.0 9.0 0.00 0.00 0.00 58 1014.4
20260507003038 70 204 4.0 11.0 0.00 0.00 0.00 56 1014.3
20260507001537 70 241 4.0 9.0 0.00 0.00 0.00 55 1014.3
20260507000039 71 178 4.0 10.0 0.00 0.00 0.00 54 1014.2
20260506234534 71 232 5.0 11.0 0.00 0.00 0.00 54 1014.2
20260506233038 71 178 4.0 14.0 0.00 0.00 0.00 54 1014.2
20260506231532 72 234 4.0 12.0 0.00 0.00 0.00 54 1014.3
20260506230032 73 225 5.0 11.0 0.00 0.00 0.00 53 1014.4
20260506224531 73 232 6.0 11.0 0.00 0.00 0.00 52 1014.5
20260506223028 73 226 4.0 10.0 0.00 0.00 0.00 50 1014.7
20260506221526 74 327 4.0 8.0 0.00 0.00 0.00 50 1014.9
20260506220025 74 203 4.0 9.0 0.00 0.00 0.00 48 1015.3
20260506214523 74 187 3.0 10.0 0.00 0.00 0.00 50 1015.4
20260506213021 74 173 3.0 9.0 0.00 0.00 0.00 51 1015.5
20260506211521 74 236 4.0 11.0 0.00 0.00 0.00 51 1015.8
20260506210017 74 215 3.0 8.0 0.00 0.00 0.00 52 1015.8
20260506204520 74 224 4.0 9.0 0.00 0.00 0.00 53 1015.8
20260506203017 74 224 5.0 11.0 0.00 0.00 0.00 53 1016.0
20260506201517 73 232 3.0 10.0 0.00 0.00 0.00 54 1016.1
20260506200013 73 288 2.0 10.0 0.00 0.00 0.00 55 1016.2